Regional Weather Roundup
Issued by NWS Cleveland, OH

Home | Current Version | Previous Version | Graphics & Text | Print | Product List | Glossary On
Versions: 1 2 3 4 5 6 7 8 9 10 11 12 13 14 15 16 17 18 19 20 21 22 23 24 25 26 27 28 29 30 31 32 33 34 35 36 37 38 39 40 41 42 43 44 45 46 47 48 49 50
000
ASUS41 KCLE 181310
RWRCLE
OHIO REGIONAL WEATHER ROUNDUP
NATIONAL WEATHER SERVICE WILMINGTON, OH
900 AM EDT FRI APR 18 2014

NOTE: "FAIR" INDICATES FEW OR NO CLOUDS BELOW 12,000 FEET WITH NO
SIGNIFICANT WEATHER AND/OR OBSTRUCTIONS TO VISIBILITY.

OHZ001>008-015>018-024>027-034-035-043-044-181400-
   NORTHWEST OHIO

CITY           SKY/WX    TMP DP  RH WIND       PRES   REMARKS
DEFIANCE       PTSUNNY   53  40  61 CALM      30.29R
FINDLAY        MOSUNNY   51  40  65 W5        30.28S
TOLEDO EXPRESS CLOUDY    51  38  60 CALM      30.29R
TOLEDO METCALF PTSUNNY   54  39  57 N5        30.30R
LIMA           MOSUNNY   51  39  63 S5        30.29R
$$

OHZ009>014-019>023-028>033-038-089-181400-
   NORTHEAST OHIO

CITY           SKY/WX    TMP DP  RH WIND       PRES   REMARKS
CLE-HOPKINS    CLOUDY    52  31  44 SW6       30.31R
CLE-LAKEFRONT  CLOUDY    51  31  46 S6        30.27R
CUY CO. ARPT   NOT AVBL
LORAIN-ELYRIA  CLOUDY    51  35  54 W3        30.30R
ASHTABULA      CLOUDY    47  28  47 S9        30.30F
AKRON-CANTON   CLOUDY    50  30  46 S8        30.29S
WOOSTER        CLOUDY    49  31  49 SW6       30.29S
MANSFIELD      CLOUDY    50  32  50 SW5       30.29R
YOUNGSTOWN     CLOUDY    47  29  49 SE7       30.30S
$$

OHZ042-051>053-060>062-070>072-077>081-181400-
  SOUTHWEST OHIO

CITY           SKY/WX    TMP DP  RH WIND       PRES   REMARKS
CINC-COVINGTON PTSUNNY   53  41  63 CALM      30.29S
CINC-LUNKEN    PTSUNNY   44  42  93 CALM      30.32R
HAMILTON       PTSUNNY   49  42  77 CALM      30.31S
DAYTON         PTSUNNY   51  42  71 NE3       30.31R
WRIGHT-PAT AFB PTSUNNY   46  41  82 N1        30.30R
DAYTON GENERAL PTSUNNY   53  39  59 CALM      30.29R
WILMINGTON     CLOUDY    53  39  59 CALM      30.30R
$$

OHZ036-037-039>041-045>050-054>059-063>069-073>076-082>088-181400-
  CENTRAL AND SOUTHEAST OHIO

CITY           SKY/WX    TMP DP  RH WIND       PRES   REMARKS
COLUMBUS       CLOUDY    52  31  44 CALM      30.30R
OSU AIRPORT    CLOUDY    51  32  48 S6        30.30R
BOLTON FIELD   SUNNY     48  36  61 SE3       30.30R
RICKENBACK AFB CLOUDY    49  36  60 CALM      30.29S
NEWARK         CLOUDY    45  38  76 CALM      30.29S
MARION         PTSUNNY   48  35  60 CALM      30.30R
LANCASTER      CLOUDY    48  35  60 CALM      30.30R
ZANESVILLE     CLOUDY    47  32  56 CALM      30.31R
NEW PHILLY     CLOUDY    47  30  51 SE6       30.31S
$$



USA.gov is the U.S. government's official web portal to all federal, state and local government web resources and services.